Location: Dennehotso
(36.8461°N, 109.8435°W)
Time: 23:26:28
(UTC+00:00)

Envisat - Pass Details

Date: 06 March 2021
Orbit: 764 x 766 km, 98.1° (Epoch: 12 April)

Event Time Altitude Azimuth Distance (km) Brightness Sun altitude
Rises 13:09:40 0° 9° (N) 3,238 6.4 -7.4°
Reaches altitude 10° 13:11:59 10° 7° (N) 2,308 5.6 -7.0°
Maximum altitude 13:17:02 70° 285° (WNW) 815 3.0 -6.0°
Drops below altitude 10° 13:22:03 10° 203° (SSW) 2,292 5.3 -5.0°
Sets 13:24:21 0° 200° (SSW) 3,213 6.0 -4.5°
